Theta_e
308 308 308 308 309 309 310 309 312 313 315 314 315 313 313 311 312 312 312 309 309 308
309 308 308 309 310 311 311 312 311 312 314 315 316 315 314 314 312 310 309 309 307 307
310 309 309 310 311 313 314 312 313 313 313 314 314 315 316 317 314 311 307 306 305 303
310 311 312 312 313 314 314 314 316 316 316 317 317 315 312 312 308 308 304 303 303 301
311 312 312 313 313 315 315 316 317 318 317 317 315 310 310 306 306 306 303 302 301 300
311 311 311 311 313 315 316 317 318 318 316 315 311 309 308 307 305 304 305 301 300 299
311 312 311 311 313 315 317 317 316 314 313 310 307 306 305 304 303 301 301 300 299 299
311 312 310 312 315 316 317 318 316 312 310 309 306 305 303 302 300 299 298 299 298 296
313 313 313 314 316 318 316 314 310 307 305 302 301 295 296 298 299 298 297 291 289 289
313 313 315 315 312 310 309 306 304 302 301 300 299 294 294 294 298 296 290 287 285 285
314 313 308 306 306 306 304 303 302 300 300 299 295 292 292 291 290 287 286 286 284 283
311 307 305 303 302 301 301 300 298 298 298 295 292 290 288 288 285 283 282 282 282 282
306 304 303 301 299 300 299 296 294 293 294 291 288 288 287 286 283 281 280 281 281 281
304 303 302 299 298 296 293 290 287 286 287 287 287 286 286 285 282 281 279 278 277 279
Wind_Speed
8 6 5 5 4 4 4 3 6 6 6 6 6 6 5 3 4 6 7 8 9 6
9 9 8 6 4 5 5 5 6 7 7 7 8 8 8 6 8 6 6 7 6 4
12 11 10 8 12 10 9 7 8 8 7 8 8 9 10 8 6 9 6 5 7 4
14 14 13 14 13 11 9 9 9 9 8 11 10 9 9 7 7 9 7 5 7 6
18 18 21 20 18 15 13 10 11 11 11 10 10 10 9 8 9 10 10 9 8 7
18 19 16 15 12 10 12 13 13 12 11 11 10 10 8 9 10 10 10 10 10 11
16 19 13 10 10 13 14 14 10 10 10 8 7 6 6 8 8 8 7 7 8 8
16 14 8 9 11 13 15 12 12 10 7 7 8 7 10 10 9 9 9 8 7 6
13 13 11 10 12 13 12 11 10 10 9 8 5 10 11 12 9 11 11 10 10 10
13 13 11 7 9 9 10 8 8 7 9 9 7 15 14 13 9 10 11 11 11 7
11 8 7 8 9 8 7 8 8 8 9 8 7 15 15 16 11 11 10 9 9 10
12 9 9 9 10 9 9 8 8 8 10 11 10 18 18 15 11 11 10 8 8 8
9 9 9 8 9 7 8 9 8 9 8 12 12 16 17 14 9 10 8 9 10 11
8 8 9 9 7 8 10 10 10 11 9 11 10 11 17 15 7 8 7 6 5 4
Wind_Direction
198 202 220 211 212 221 230 194 188 202 199 206 203 201 196 190 220 212 220 210 213 210
201 201 208 207 200 217 210 207 204 204 204 196 196 178 177 199 203 193 204 221 202 186
199 199 205 196 213 215 209 202 201 212 197 203 195 186 193 213 214 206 194 189 183 164
195 196 202 212 214 207 203 200 210 212 216 232 228 199 189 196 187 198 179 170 172 165
194 195 205 209 211 203 204 204 217 223 232 227 231 173 172 177 193 192 191 180 162 166
209 207 216 213 215 204 209 210 219 209 202 205 204 183 188 183 200 194 196 172 169 159
208 217 210 191 191 193 200 204 210 201 195 187 177 178 163 184 186 168 168 155 148 145
211 219 200 183 189 194 205 212 209 198 187 182 191 180 177 171 161 149 142 130 114 92
216 217 211 194 193 201 205 199 181 182 171 172 178 159 165 153 156 148 140 116 99 107
207 214 209 196 173 186 186 170 171 160 156 168 165 151 143 134 138 129 120 124 119 110
191 191 146 148 162 162 159 165 167 163 155 147 133 129 127 116 113 101 103 114 115 118
179 163 155 157 151 151 150 150 150 147 144 132 131 127 122 114 107 105 102 102 107 119
145 148 160 153 153 151 144 133 120 109 114 120 116 117 114 115 117 118 118 111 110 119
150 151 150 137 133 130 121 108 102 98 92 98 109 112 116 117 119 129 126 122 124 119